Change the Weather History Date:

Friday, October 12, 2012

  Actual Average Record
Temperature  
Mean Temperature 72 °F 66 °F  
Max Temperature 85 °F 78 °F 93 °F (1928)
Min Temperature 58 °F 54 °F 35 °F (1932)
Degree Days  
Heating Degree Days 0 2  
Month to date heating degree days 31 18  
Since 1 July heating degree days 32 25  
Cooling Degree Days 7 4  
Month to date cooling degree days 34 58  
Year to date cooling degree days 2471 2184  
Growing Degree Days 20 (Base 50)    
Moisture  
Dew Point 62 °F    
Average Humidity 74    
Maximum Humidity 100    
Minimum Humidity 47    
Precipitation  
Precipitation 0.00 in 0.13 in 3.45 in (1970)
Month to date precipitation 0.14 1.44  
Year to date precipitation 56.97 41.75  
Sea Level Pressure  
Sea Level Pressure 30.21 in    
Wind  
Wind Speed 1 mph (SE)    
Max Wind Speed 7 mph    
Max Gust Speed 10 mph    
Visibility 8 miles    
Events      
T = Trace of Precipitation, MM = Missing Value Source: NWS Daily Summary

Daily Weather History Graph

Daily Weather History Graph

Search for Another Location

Airport or City:

Trip Planner

Search our weather history database for the weather conditions in past years. The results will help you decide how hot, cold, wet, or windy it might be!

Date:

Astronomy

Oct. 12, 2012 Rise Set
Actual Time 7:02 AM CDT 6:30 PM CDT
Civil Twilight 6:37 AM CDT 6:55 PM CDT
Nautical Twilight 6:09 AM CDT 7:23 PM CDT
Astronomical Twilight 5:40 AM CDT 7:52 PM CDT
Moon 3:54 AM CDT (10/12) 4:33 PM CDT (10/12)
Length of Visible Light 12h 17m
Length of Day
11h 28m
Waning Crescent, 10% of the Moon is Illuminated
Oct 12
Waning Crescent
Oct 15
New
Oct 21
First Quarter
Oct 29
Full
Nov 6
Last Quarter

Hourly Weather History & Observations

Time (CDT) Temp. Heat Index Dew Point Humidity Pressure Visibility Wind Dir Wind Speed Gust Speed Precip Events Conditions
12:54 AM 64.9 °F - 62.1 °F 90% 30.18 in 9.0 mi SSE 5.8 mph - N/A   Clear
1:54 AM 64.9 °F - 62.1 °F 90% 30.19 in 9.0 mi SSE 5.8 mph - N/A   Clear
2:54 AM 62.6 °F - 60.8 °F 94% 30.19 in 7.0 mi Calm Calm - N/A   Clear
3:54 AM 62.1 °F - 60.1 °F 93% 30.19 in 6.0 mi Calm Calm - N/A   Clear
4:54 AM 61.0 °F - 60.1 °F 97% 30.19 in 5.0 mi Calm Calm - N/A   Clear
5:54 AM 60.1 °F - 57.9 °F 93% 30.20 in 5.0 mi Calm Calm - N/A   Clear
6:04 AM 60.8 °F - 57.2 °F 88% 30.21 in 3.0 mi Calm Calm - N/A   Partly Cloudy
6:54 AM 60.1 °F - 57.9 °F 93% 30.22 in 3.0 mi Calm Calm - N/A   Clear
7:54 AM 62.1 °F - 60.1 °F 93% 30.24 in 4.0 mi Calm Calm - N/A   Clear
8:54 AM 69.8 °F - 64.4 °F 83% 30.27 in 8.0 mi Calm Calm - N/A   Clear
9:54 AM 75.0 °F - 63.0 °F 66% 30.27 in 10.0 mi Calm Calm - N/A   Clear
10:54 AM 78.1 °F - 64.0 °F 62% 30.28 in 10.0 mi Calm Calm - N/A   Clear
11:54 AM 80.6 °F 82.3 °F 64.4 °F 58% 30.27 in 10.0 mi Variable 4.6 mph - N/A   Clear
12:54 PM 82.0 °F 83.4 °F 64.0 °F 54% 30.25 in 10.0 mi South 3.5 mph - N/A   Partly Cloudy
1:54 PM 82.9 °F 84.0 °F 63.0 °F 51% 30.21 in 10.0 mi SSE 4.6 mph - N/A   Partly Cloudy
2:54 PM 84.0 °F 84.9 °F 63.0 °F 49% 30.19 in 10.0 mi ENE 4.6 mph - N/A   Partly Cloudy
3:54 PM 82.9 °F 83.3 °F 61.0 °F 47% 30.19 in 10.0 mi Calm Calm - N/A   Partly Cloudy
4:54 PM 80.6 °F 81.8 °F 62.6 °F 54% 30.20 in 8.0 mi East 3.5 mph - N/A   Partly Cloudy
5:54 PM 77.0 °F - 66.9 °F 71% 30.19 in 10.0 mi Calm Calm - N/A   Partly Cloudy
6:54 PM 72.0 °F - 66.0 °F 81% 30.19 in 10.0 mi Calm Calm - N/A   Clear
7:54 PM 69.1 °F - 64.0 °F 84% 30.19 in 10.0 mi Calm Calm - N/A   Clear
8:54 PM 66.2 °F - 62.6 °F 88% 30.20 in 10.0 mi Calm Calm - N/A   Clear
9:54 PM 64.9 °F - 62.1 °F 90% 30.19 in 10.0 mi Calm Calm - N/A   Clear
10:54 PM 64.0 °F - 62.1 °F 93% 30.19 in 7.0 mi Calm Calm - N/A   Clear
11:54 PM 63.0 °F - 61.0 °F 93% 30.18 in 7.0 mi Calm Calm - N/A   Clear